This demonstration page uses our WeatherBlox Daily Observations layout. Learn more.

41.55636, -103.73856

Hourly Observations for December 25, 2015

Temp ( °F °C ) Dew Point ( °F °C ) Humidity (%) Winds ( mph kmh ) Pressure ( in mb ) Visibility ( mi km ) Precip ( " mm )
12:53 am 00:53 Clear 11 -11.7 1 -17.2 64 64 E 8 13 30 1016 10 16.0934 0 0
1:53 am 01:53 Clear 13 -10.6 2 -16.7 61 61 E 6 9 29.98 1015 10 16.0934 0 0
2:53 am 02:53 Clear 14 -10 4 -15.6 64 64 NE 5 7 29.99 1016 10 16.0934 0 0
3:53 am 03:53 Clear 17 -8.3 5 -15 59 59 ENE 7 11 29.95 1014 10 16.0934 0 0
4:53 am 04:53 Clear 17 -8.3 5 -15 59 59 ESE 3 6 29.95 1014 10 16.0934 0 0
5:53 am 05:53 Clear 15 -9.4 5 -15 64 64 ESE 5 7 29.96 1015 10 16.0934 0 0
6:53 am 06:53 Clear 15 -9.4 7 -13.9 70 70 ESE 7 11 29.96 1015 10 16.0934 0 0
7:53 am 07:53 Partly Cloudy 17 -8.3 9 -12.8 70 70 ESE 9 15 29.96 1015 10 16.0934 0 0
8:53 am 08:53 Partly Cloudy 20 -6.7 12 -11.1 71 71 ESE 13 20 29.98 1015 10 16.0934 0 0
9:53 am 09:53 Sunny 21 -6.1 13 -10.6 71 71 ESE 16 26 29.98 1015 10 16.0934 0 0
10:53 am 10:53 Sunny 23 -5 14 -10 68 68 E 8 13 29.97 1015 10 16.0934 0 0
11:15 am 11:15 Mostly Cloudy 23 -5 14 -10 68 68 E 8 13 29.97 1015 10 16.0934 0 0
11:39 am 11:39 Partly Cloudy 24 -4.4 15 -9.4 68 68 ESE 10 17 29.94 1014 10 16.0934 0 0
11:53 am 11:53 Mostly Sunny 24 -4.4 16 -8.9 71 71 ESE 9 15 29.9 1013 10 16.0934 0 0
12:21 pm 12:21 Cloudy 25 -3.9 17 -8.3 72 72 ESE 10 17 29.94 1014 10 16.0934 0 0
12:53 pm 12:53 Cloudy 26 -3.3 17 -8.3 69 69 E 7 11 29.89 1012 10 16.0934 0 0
1:53 pm 13:53 Cloudy 28 -2.2 19 -7.2 69 69 E 6 9 29.86 1011 10 16.0934 0 0
2:53 pm 14:53 Cloudy 29 -1.7 21 -6.1 72 72 ENE 7 11 29.86 1011 10 16.0934 0 0
3:21 pm 15:21 Cloudy 29 -1.7 22 -5.6 75 75 ENE 6 9 29.91 1013 10 16.0934 0 0
3:34 pm 15:34 Cloudy 28 -2 21 -6 74 74 NE 3 6 29.91 1013 10 16.0934 0 0
3:53 pm 15:53 Cloudy 29 -1.7 22 -5.6 75 75 ENE 6 9 29.88 1012 10 16.0934 0 0
4:30 pm 16:30 Cloudy 28 -2 23 -5 80 80 NE 5 7 29.91 1013 10 16.0934 0 0
4:53 pm 16:53 Cloudy 29 -1.7 23 -5 78 78 NE 7 11 29.9 1013 10 16.0934 0 0
5:33 pm 17:33 Cloudy with Light Snow 27 -2.8 23 -5 85 85 NNE 12 19 29.94 1014 2.5 4.02335 0 0.0254
5:48 pm 17:48 Cloudy with Light Snow 27 -3 23 -5 86 86 NNE 12 19 29.94 1014 1.5 2.41401 0 0
5:53 pm 17:53 Cloudy with Light Snow 27 -2.8 23 -5 85 85 NNE 12 19 29.93 1014 1.25 2.011675 0.01 0.254
6:19 pm 18:19 Cloudy with Light Snow 27 -2.8 24 -4.4 89 89 N 10 17 29.94 1014 1.25 2.011675 0.01 0.254
6:47 pm 18:47 Cloudy with Light Snow 27 -3 25 -4 93 93 NNE 13 20 29.97 1015 2 3.21868 0.03 0.762
6:53 pm 18:53 Cloudy with Light Snow 27 -2.8 24 -4.4 89 89 NNE 14 22 29.95 1014 2.5 4.02335 0.03 0.762
7:27 pm 19:27 Cloudy with Light Snow 27 -2.8 23 -5 85 85 NNE 15 24 29.97 1015 1.25 2.011675 0 0.0254
7:46 pm 19:46 Cloudy with Light Snow 27 -3 25 -4 93 93 NNE 15 24 29.97 1015 2.5 4.02335 0 0
7:53 pm 19:53 Cloudy with Light Snow 27 -2.8 24 -4.4 89 89 NE 16 26 29.94 1014 2 3.21868 0.01 0.254
8:13 pm 20:13 Cloudy with Light Snow 27 -2.8 23 -5 85 85 NE 16 26 29.97 1015 1.5 2.41401 0 0.0254
8:36 pm 20:36 Cloudy with Light Snow 27 -3 23 -5 86 86 NE 16 26 29.97 1015 2.5 4.02335 0 0
8:53 pm 20:53 Cloudy with Light Snow 27 -2.8 23 -5 85 85 NE 14 22 29.96 1014 1.75 2.816345 0 0.0254
9:36 pm 21:36 Mostly Cloudy with Scattered Snow Showers 26 -3.3 22 -5.6 84 84 NE 14 22 30.06 1018 0.75 1.207005 0.02 0.508
9:51 pm 21:51 Mostly Cloudy with Snow 25 -4 21 -6 86 86 NNE 17 28 30.06 1018 0.5 0.80467 0.03 0.762
9:52 pm 21:52 Mostly Cloudy with Snow 25 -3.9 21 -6.1 85 85 NNE 18 30 30.01 1016 0.5 0.80467 0.03 0.762
10:38 pm 22:38 Mostly Cloudy with Haze 19 -7 16 -9 86 86 N 21 33 30.15 1021 1 1.60934 0 0
10:46 pm 22:46 Mostly Cloudy with Mist and Fog 19 -7 16 -9 86 86 N 20 31 30.15 1021 0.75 1.207005 0 0
10:53 pm 22:53 Mostly Cloudy with Mist and Fog 19 -7.2 15 -9.4 84 84 N 22 35 30.04 1017 0.75 1.207005 0.01 0.254
11:05 pm 23:05 Mostly Cloudy with Mist and Fog 19 -7.2 15 -9.4 84 84 N 23 37 30.15 1021 1 1.60934 0.01 0.254
11:23 pm 23:23 Cloudy with Haze 18 -7.8 13 -10.6 81 81 N 18 30 30.18 1022 2.5 4.02335 0.01 0.254
11:46 pm 23:46 Cloudy with Haze 18 -8 12 -11 79 79 N 23 37 30.18 1022 1.5 2.41401 0 0
11:53 pm 23:53 Cloudy with Haze 17 -8.3 12 -11.1 80 80 N 24 39 30.06 1018 1.5 2.41401 0.01 0.254

Powered by AerisWeather